Location: LDNL
(36.4545°S, 141.6685°E)
Time: 12:51:09
(UTC+10:00)

Explorer 7 - Pass Details

Date: 11 August 2022
Orbit: 482 x 668 km, 50.3° (Epoch: 26 September)

Event Time Altitude Azimuth Distance (km) Brightness Sun altitude
Rises 17:32:58 0° 340° (NNW) 2,998 11.3 3.6°
Reaches altitude 10° 17:35:36 10° 352° (N) 2,092 10.2 3.1°
Maximum altitude 17:39:40 27° 49° (NE) 1,273 8.5 2.4°
Drops below altitude 10° 17:43:43 10° 106° (ESE) 2,075 9.1 1.6°
Sets 17:46:18 0° 118° (ESE) 2,969 9.9 1.1°
